Snowfall_Accumulation
0.0 0.2 0.8 0.1 0.0 0.0 0.1 0.1 0.0 0.0 0.0 0.0 0.0 0.0 0.0 0.0 0.0 0.0 0.0 0.0 0.0 0.0 0.0 0.0 0.0 0.0 0.0 0.0 0.0 0.0 0.0 0.0 0.0 0.0 0.0 0.0 0.0 0.0 0.0 0.0 0.0 0.0 0.0 0.0
0.6 1.7 0.0 0.0 0.0 0.2 0.5 0.6 0.6 0.0 0.0 0.0 0.0 0.0 0.0 0.0 0.0 0.0 0.0 0.0 0.0 0.0 0.0 0.0 0.0 0.0 0.0 0.0 0.0 0.0 0.0 0.0 0.0 0.0 0.0 0.0 0.0 0.0 0.0 0.0 0.0 0.0 0.0 0.0
1.4 0.4 0.0 0.0 0.0 0.2 0.8 1.1 0.2 0.1 0.0 0.0 0.2 0.2 0.0 0.0 0.0 0.0 0.0 0.0 0.0 0.0 0.0 0.0 0.0 0.0 0.0 0.0 0.0 0.0 0.0 0.0 0.0 0.0 0.0 0.0 0.0 0.0 0.0 0.0 0.0 0.0 0.0 0.0
1.9 0.0 0.1 0.9 1.6 0.1 0.8 0.0 0.1 0.3 3.4 4.2 0.2 10.2 0.0 0.0 0.0 0.0 0.0 0.0 0.0 0.0 0.0 0.0 0.0 0.0 0.0 0.0 0.0 0.0 0.0 0.0 0.0 0.0 0.0 0.0 0.0 0.0 0.0 0.0 0.0 0.0 0.0 0.0
3.7 0.4 0.2 2.2 0.5 0.0 2.0 0.0 0.0 0.8 3.2 4.0 2.3 9.3 0.0 0.0 0.0 0.0 0.0 0.0 0.0 0.0 0.0 0.0 0.0 0.0 0.0 0.0 0.0 0.0 0.0 0.0 0.0 0.0 0.0 0.0 0.0 0.0 0.0 0.0 0.0 0.0 0.0 0.0
0.9 0.0 2.4 1.5 0.1 0.0 0.1 1.1 0.6 2.3 5.3 34.7 1.7 1.4 0.2 0.1 0.1 0.0 0.0 0.0 0.0 0.0 0.0 0.0 0.0 0.0 0.0 0.0 0.0 0.0 0.0 0.0 0.0 0.0 0.0 0.0 0.0 0.0 0.0 0.0 0.0 0.0 0.0 0.0
1.7 1.4 0.2 0.0 6.2 3.7 5.0 8.3 31.9 37.5 44.5 16.7 0.1 0.6 0.5 0.0 0.0 0.0 0.0 0.0 0.0 0.0 0.0 0.0 0.0 0.0 0.0 0.0 0.0 0.0 0.0 0.0 0.0 0.0 0.0 0.0 0.0 0.0 0.0 0.0 0.0 0.0 0.1 0.1
7.0 9.8 2.0 0.2 1.4 4.5 3.3 6.0 10.9 15.3 11.1 2.7 0.0 9.8 1.0 0.1 0.1 0.4 0.2 0.2 0.0 0.0 0.0 0.0 0.0 0.0 0.0 0.0 0.0 0.0 0.0 0.0 0.0 0.0 0.0 0.0 0.0 0.1 0.0 0.0 0.0 0.0 0.4 0.5
10.9 2.7 0.1 0.5 0.9 0.8 9.9 19.7 2.7 15.3 8.9 13.2 2.1 0.2 0.1 0.0 0.3 0.3 0.6 0.0 0.0 0.0 0.0 0.0 0.0 0.0 0.0 0.0 0.0 0.0 0.0 0.0 0.1 0.1 0.0 0.1 0.1 0.1 0.2 0.1 0.1 0.3 0.1 0.2
6.0 13.2 0.3 1.3 1.9 1.4 2.5 0.2 15.1 23.5 30.6 14.4 2.5 1.1 3.1 1.6 2.9 0.3 1.8 0.1 0.1 0.0 0.0 0.0 0.0 0.1 0.0 0.1 0.1 0.1 0.1 0.3 0.3 0.1 0.1 0.0 0.1 0.1 0.4 0.5 0.3 0.7 1.0 0.7
8.5 14.0 5.9 2.5 13.9 10.5 6.9 7.7 4.2 3.4 11.3 18.0 10.1 8.2 9.0 3.4 3.4 4.5 0.9 0.2 0.2 0.1 0.2 0.2 0.1 0.1 1.1 1.2 1.9 1.3 1.4 4.2 1.0 0.5 0.2 0.2 0.3 0.4 1.5 1.1 1.3 3.0 3.7 5.0
3.1 11.6 17.6 10.7 6.1 2.6 2.6 3.6 1.2 11.6 9.3 6.4 9.4 8.6 6.0 6.0 6.0 2.6 0.7 0.3 0.2 0.2 0.4 0.4 0.6 2.0 4.0 4.2 4.3 5.6 4.7 6.7 2.7 2.1 0.8 0.9 0.7 1.2 3.5 3.1 3.1 2.7 3.1 3.1
8.1 15.1 17.4 12.7 8.5 5.3 11.2 3.5 4.3 2.8 3.5 10.4 12.6 9.0 5.3 5.8 4.0 1.8 2.5 0.9 0.6 0.6 0.5 1.6 4.1 6.6 6.9 6.4 7.1 8.9 8.6 6.7 3.7 3.2 1.8 1.8 2.2 1.6 3.0 4.4 3.3 2.0 1.5 1.5
nan 7.0 14.3 15.9 12.9 12.9 14.6 8.8 5.1 4.5 22.1 9.2 11.8 9.1 7.8 6.3 6.0 3.4 2.2 1.4 2.2 3.8 6.9 6.9 7.3 8.6 9.2 9.4 11.0 9.4 10.8 5.9 5.1 4.5 3.0 3.2 3.2 2.9 2.5 2.4 2.9 1.9 2.0 2.1
5.8 11.6 7.1 7.4 9.6 14.4 14.1 11.3 8.1 15.0 13.2 14.6 13.6 13.4 11.3 10.0 9.8 9.7 7.2 5.3 5.4 7.3 7.3 9.0 11.6 12.6 14.5 13.4 11.1 7.7 6.6 6.3 6.0 6.2 5.0 5.8 5.1 4.1 4.6 4.4 4.5 3.3 2.7 2.7
3.6 9.3 6.4 8.3 10.1 12.1 11.3 8.0 6.7 4.9 5.9 8.9 10.0 13.0 12.7 13.7 12.7 12.4 12.7 10.5 11.9 12.3 12.4 14.0 16.4 16.4 14.7 12.7 11.2 7.0 6.5 7.0 7.1 8.3 9.7 9.2 5.9 5.1 4.7 3.8 4.6 3.5 4.2 4.2
5.9 8.0 11.7 19.1 6.9 7.8 16.9 20.7 11.1 14.2 10.2 7.0 14.8 16.9 18.3 19.6 16.3 15.2 14.6 15.0 14.4 14.6 18.5 20.3 17.8 14.3 8.9 6.2 3.3 4.6 5.1 4.9 3.4 3.7 3.7 3.2 3.6 3.1 3.2 2.7 2.5 3.8 4.4 2.6
5.7 7.4 7.8 21.1 9.7 43.6 17.2 9.6 10.3 20.3 15.0 14.1 11.3 13.5 14.9 19.9 19.3 17.0 14.7 13.0 14.8 16.7 14.4 10.1 5.8 3.3 3.8 2.3 2.4 0.8 1.0 1.5 2.0 2.9 2.1 2.1 2.0 1.9 1.6 1.4 2.0 1.8 1.7 1.5
4.0 5.5 25.0 35.8 23.7 7.0 1.7 11.1 14.3 13.2 17.0 15.6 15.2 10.2 14.3 14.1 8.3 13.6 15.9 14.2 14.4 12.3 8.3 7.9 6.9 7.2 2.4 3.6 3.1 1.7 2.6 2.1 1.8 3.6 3.8 3.4 1.9 2.2 1.8 1.7 1.6 1.6 1.3 1.1
4.6 4.3 7.9 26.9 28.5 31.9 8.1 4.4 2.1 5.1 15.3 15.8 17.9 17.0 11.2 0.3 6.1 12.0 13.8 8.8 9.4 8.2 5.8 5.5 4.4 3.3 2.2 2.5 1.1 0.7 1.2 2.5 2.6 2.2 2.3 2.6 2.5 2.5 2.4 1.8 1.7 1.5 1.0 0.8
17.7 20.2 29.3 22.8 25.1 12.2 3.9 0.6 0.4 8.8 11.9 16.3 14.7 14.3 2.1 4.0 6.0 10.1 7.7 6.2 5.7 6.4 6.9 4.4 3.3 3.0 2.5 1.7 1.8 1.5 1.4 2.4 1.9 2.1 2.1 1.8 1.9 2.1 1.4 1.3 1.0 0.9 1.1 0.8
10.4 17.6 27.2 20.4 25.6 35.4 1.6 0.0 4.6 8.0 8.4 10.2 7.8 6.1 5.6 7.6 7.5 5.6 4.3 5.1 4.7 5.6 4.4 4.2 3.6 3.2 2.4 1.4 1.0 1.5 1.8 2.2 2.2 2.3 2.2 2.3 2.9 2.0 2.0 4.1 2.7 3.7 2.9 3.0
8.8 4.8 7.4 5.0 8.0 4.0 3.4 3.8 4.5 5.8 5.0 4.3 2.4 2.0 0.6 0.5 0.8 0.2 0.1 0.1 0.5 0.8 1.5 2.2 2.8 3.3 3.5 3.7 3.2 3.2 2.9 2.5 3.0 3.9 5.4 4.8 3.9 2.9 2.7 4.3 3.1 4.8 3.6 4.7
0.8 0.4 3.1 3.8 1.9 3.2 3.6 1.3 1.7 1.9 0.3 0.1 0.1 0.1 0.0 0.0 0.0 0.0 0.0 0.0 0.1 0.3 0.9 1.0 1.7 2.1 2.3 2.1 2.0 1.8 1.9 2.1 6.3 5.8 3.2 2.2 2.8 1.7 1.9 2.5 2.9 4.5 4.4 4.2
0.3 0.1 0.3 1.4 0.4 1.3 0.6 0.1 0.2 0.7 0.8 0.2 0.2 0.3 0.1 0.0 0.0 0.0 0.0 0.1 0.0 0.1 0.5 1.1 1.3 1.3 1.4 1.3 1.3 2.2 1.9 2.6 2.6 3.2 2.0 2.3 3.0 3.1 2.0 1.6 2.9 2.6 1.1 3.5
0.3 0.5 0.5 0.7 0.3 0.2 0.0 0.0 0.0 0.0 0.2 0.1 0.0 0.0 0.0 0.1 0.0 0.1 0.1 0.1 0.1 0.2 0.4 0.8 1.1 1.1 1.2 1.8 2.2 3.2 4.3 3.8 4.6 2.4 3.4 3.0 2.9 2.9 2.7 3.1 3.8 nan nan nan
Water_Equivalent
0.00 0.03 0.14 0.01 0.00 0.00 0.02 0.01 0.00 0.00 0.00 0.00 0.00 0.00 0.00 0.00 0.00 0.00 0.00 0.00 0.00 0.00 0.00 0.00 0.00 0.00 0.00 0.00 0.00 0.00 0.00 0.00 0.00 0.00 0.00 0.00 0.00 0.00 0.00 0.00 0.00 0.00 0.00 0.00
0.11 0.24 0.00 0.00 0.00 0.03 0.07 0.08 0.09 0.00 0.00 0.00 0.00 0.00 0.00 0.00 0.00 0.00 0.00 0.00 0.00 0.00 0.00 0.00 0.00 0.00 0.00 0.00 0.00 0.00 0.00 0.00 0.00 0.00 0.00 0.00 0.00 0.00 0.00 0.00 0.00 0.00 0.00 0.00
0.22 0.08 0.00 0.00 0.00 0.03 0.11 0.14 0.02 0.01 0.00 0.00 0.02 0.05 0.00 0.00 0.00 0.00 0.00 0.00 0.00 0.00 0.00 0.00 0.00 0.00 0.00 0.00 0.00 0.00 0.00 0.00 0.00 0.00 0.00 0.00 0.00 0.00 0.00 0.00 0.00 0.00 0.00 0.00
0.37 0.00 0.02 0.13 0.19 0.02 0.12 0.00 0.01 0.05 0.54 0.55 0.03 1.33 0.00 0.00 0.00 0.00 0.00 0.00 0.00 0.00 0.00 0.00 0.00 0.00 0.00 0.00 0.00 0.00 0.00 0.00 0.00 0.00 0.00 0.00 0.00 0.00 0.00 0.00 0.00 0.00 0.00 0.00
0.61 0.09 0.03 0.39 0.08 0.00 0.33 0.00 0.00 0.12 0.52 0.55 0.31 1.19 0.00 0.00 0.00 0.00 0.00 0.00 0.00 0.00 0.00 0.00 0.00 0.00 0.00 0.00 0.00 0.00 0.00 0.00 0.00 0.00 0.00 0.00 0.00 0.00 0.00 0.00 0.00 0.00 0.00 0.00
0.14 0.00 0.43 0.29 0.02 0.00 0.01 0.16 0.11 0.41 0.81 4.69 0.24 0.19 0.03 0.02 0.03 0.00 0.00 0.00 0.00 0.00 0.00 0.00 0.00 0.00 0.00 0.00 0.00 0.00 0.00 0.00 0.00 0.00 0.00 0.00 0.00 0.00 0.00 0.00 0.00 0.00 0.00 0.00
0.31 0.26 0.05 0.00 0.90 0.71 0.75 1.10 4.30 5.43 6.24 2.27 0.02 0.10 0.07 0.01 0.01 0.01 0.00 0.00 0.00 0.00 0.00 0.00 0.00 0.00 0.00 0.00 0.00 0.00 0.00 0.00 0.00 0.00 0.00 0.00 0.00 0.00 0.00 0.00 0.00 0.01 0.04 0.04
1.06 1.73 0.32 0.04 0.22 0.68 0.50 0.82 1.45 1.54 1.27 0.44 0.01 1.34 0.22 0.03 0.03 0.09 0.04 0.05 0.00 0.00 0.00 0.00 0.00 0.00 0.00 0.00 0.00 0.00 0.00 0.01 0.01 0.01 0.01 0.01 0.01 0.02 0.00 0.00 0.00 0.00 0.15 0.18
1.54 0.48 0.03 0.09 0.14 0.12 1.43 2.50 0.41 1.79 1.08 1.31 0.40 0.04 0.02 0.01 0.06 0.05 0.12 0.00 0.00 0.00 0.00 0.01 0.01 0.00 0.00 0.00 0.00 0.00 0.00 0.01 0.01 0.01 0.01 0.01 0.01 0.02 0.04 0.02 0.01 0.08 0.02 0.05
0.97 1.75 0.06 0.21 0.35 0.27 0.39 0.04 1.81 3.26 3.44 1.49 0.34 0.15 0.53 0.25 0.42 0.04 0.26 0.02 0.02 0.01 0.01 0.01 0.01 0.01 0.01 0.02 0.02 0.02 0.02 0.08 0.06 0.03 0.02 0.01 0.02 0.03 0.08 0.12 0.07 0.17 0.26 0.18
1.62 2.02 0.83 0.38 2.45 1.64 0.98 1.05 0.61 0.47 1.45 2.01 1.08 1.18 1.82 0.45 0.44 0.52 0.14 0.03 0.04 0.03 0.03 0.03 0.03 0.03 0.25 0.30 0.58 0.32 0.34 1.06 0.23 0.11 0.05 0.05 0.07 0.09 0.31 0.22 0.25 0.62 0.76 1.08
0.57 1.71 2.37 1.86 1.15 0.39 0.35 0.63 0.21 1.77 1.20 0.93 1.21 1.01 1.06 0.76 0.75 0.36 0.11 0.06 0.05 0.05 0.08 0.08 0.12 0.41 0.98 1.02 1.08 1.10 0.88 1.49 0.62 0.51 0.19 0.20 0.14 0.23 0.71 0.57 0.53 0.51 0.58 0.66
1.32 2.01 2.51 1.96 1.31 0.76 1.53 0.50 0.61 0.36 0.57 1.42 1.77 1.27 0.75 0.75 0.59 0.29 0.35 0.14 0.10 0.11 0.10 0.26 0.69 1.38 1.59 1.22 1.29 1.66 1.57 1.36 0.70 0.74 0.39 0.34 0.43 0.31 0.64 0.89 0.69 0.44 0.32 0.33
nan 0.97 1.68 1.92 1.82 1.91 1.71 1.04 0.67 0.60 3.58 1.49 1.35 1.19 1.02 0.79 0.78 0.51 0.39 0.21 0.32 0.51 0.82 1.08 1.13 1.50 1.65 1.72 2.04 1.66 2.01 1.26 1.14 1.02 0.55 0.53 0.60 0.53 0.44 0.46 0.56 0.33 0.41 0.45
0.99 1.67 0.81 0.95 1.18 1.95 1.88 1.30 0.86 1.64 1.60 1.79 1.61 1.35 1.39 1.27 1.19 1.21 1.03 0.71 0.63 0.84 0.89 1.18 1.68 2.02 2.66 2.56 2.04 1.42 1.18 1.22 1.25 1.28 0.81 0.86 0.84 0.62 0.71 0.65 0.74 0.50 0.44 0.50
0.58 1.61 0.73 1.11 1.26 1.59 1.45 0.91 0.80 0.56 0.64 1.02 1.19 1.43 1.85 1.68 1.49 1.51 1.64 1.16 1.17 1.30 1.45 1.96 2.47 2.69 2.21 1.84 1.51 1.01 0.88 1.01 1.22 1.21 1.37 1.21 0.75 0.64 0.56 0.46 0.57 0.50 0.78 0.86
0.82 1.08 2.34 3.85 0.78 0.83 2.87 2.29 1.23 1.60 1.25 0.84 1.51 2.67 2.72 2.62 1.82 1.86 1.68 1.57 1.57 1.92 2.49 2.67 2.38 1.66 0.94 0.67 0.35 0.48 0.58 0.60 0.42 0.47 0.40 0.35 0.39 0.34 0.39 0.31 0.30 0.51 0.63 0.40
0.72 1.02 1.40 4.50 2.08 7.56 2.39 1.29 1.31 2.53 1.76 1.73 1.37 1.83 2.39 2.97 2.56 2.30 1.99 1.64 1.66 1.77 1.67 1.20 0.77 0.47 0.60 0.29 0.37 0.11 0.12 0.18 0.24 0.33 0.25 0.23 0.21 0.25 0.22 0.19 0.29 0.29 0.27 0.24
0.60 0.79 4.90 6.79 3.90 0.95 0.21 1.39 1.63 1.38 2.10 2.09 1.79 1.36 2.09 1.99 0.94 1.94 2.15 1.70 1.83 1.34 1.02 0.98 0.94 1.00 0.31 0.47 0.39 0.21 0.31 0.25 0.21 0.43 0.47 0.44 0.28 0.32 0.26 0.25 0.23 0.24 0.20 0.18
0.62 0.57 1.10 5.67 5.59 4.58 1.13 0.58 0.30 0.70 2.00 2.08 2.42 2.19 1.55 0.04 0.86 2.21 2.32 1.24 1.27 1.02 0.69 0.65 0.53 0.42 0.29 0.36 0.15 0.10 0.14 0.29 0.30 0.25 0.28 0.32 0.33 0.33 0.33 0.24 0.23 0.21 0.15 0.12
2.95 3.87 5.86 4.51 4.70 2.07 0.58 0.09 0.05 1.09 1.73 2.25 2.06 1.98 0.25 0.46 0.86 1.56 1.00 0.77 0.74 0.76 0.81 0.53 0.40 0.35 0.35 0.28 0.27 0.20 0.19 0.28 0.24 0.25 0.23 0.19 0.22 0.26 0.16 0.15 0.12 0.13 0.15 0.10
1.43 2.86 5.20 3.70 4.72 5.46 0.26 0.00 0.47 1.19 1.23 1.47 1.15 0.81 0.66 1.05 1.04 0.76 0.58 0.66 0.56 0.62 0.47 0.48 0.35 0.31 0.25 0.16 0.12 0.15 0.18 0.22 0.22 0.22 0.22 0.24 0.36 0.24 0.23 0.61 0.34 0.54 0.41 0.42
1.20 0.58 1.16 0.60 1.16 0.62 0.49 0.55 0.68 0.81 0.75 0.71 0.35 0.26 0.08 0.06 0.11 0.03 0.02 0.01 0.05 0.07 0.15 0.21 0.26 0.30 0.32 0.36 0.33 0.30 0.26 0.24 0.29 0.45 0.71 0.65 0.53 0.41 0.38 0.68 0.41 0.74 0.53 0.74
0.11 0.06 0.44 0.51 0.29 0.47 0.55 0.23 0.27 0.30 0.06 0.02 0.01 0.01 0.00 0.01 0.01 0.00 0.00 0.00 0.01 0.03 0.09 0.10 0.17 0.21 0.21 0.20 0.19 0.18 0.19 0.21 0.91 0.86 0.41 0.27 0.37 0.25 0.28 0.44 0.53 0.84 0.75 0.67
0.07 0.03 0.06 0.21 0.09 0.22 0.11 0.02 0.04 0.11 0.14 0.03 0.03 0.04 0.01 0.00 0.00 0.00 0.01 0.02 0.01 0.01 0.05 0.12 0.14 0.13 0.13 0.13 0.13 0.25 0.21 0.32 0.36 0.47 0.24 0.31 0.46 0.50 0.28 0.25 0.49 0.41 0.17 0.58
0.05 0.07 0.12 0.17 0.05 0.03 0.01 0.00 0.00 0.00 0.03 0.01 0.00 0.01 0.01 0.01 0.00 0.01 0.02 0.01 0.02 0.04 0.05 0.09 0.13 0.12 0.12 0.19 0.23 0.37 0.58 0.53 0.59 0.25 0.43 0.42 0.43 0.41 0.37 0.40 0.45 nan nan nan
SL_Ratio
nan 6.5 6.2 5.8 nan nan 6.8 7.2 7.5 nan nan nan nan nan nan nan nan nan nan nan nan nan nan nan nan nan nan nan nan nan nan nan nan nan nan nan nan nan nan nan nan nan nan nan
5.5 7.0 5.0 nan nan 6.4 7.0 7.6 7.3 5.0 nan 5.0 nan nan nan nan nan nan nan nan nan nan nan nan nan nan nan nan nan nan nan nan nan nan nan nan nan nan nan nan nan nan nan nan
6.7 4.9 nan nan nan 6.6 6.9 7.7 7.2 6.7 nan nan 6.8 5.2 5.0 nan nan nan nan nan nan nan nan nan nan nan nan nan nan nan nan nan nan nan nan nan nan nan nan nan nan nan nan nan
5.1 3.6 6.0 7.2 8.4 7.1 6.2 5.0 6.5 6.8 6.3 7.5 5.0 7.7 nan nan nan nan nan nan nan nan nan nan nan nan nan nan nan nan nan nan nan nan nan nan nan nan nan nan nan nan nan nan
6.1 4.5 5.4 5.6 6.6 nan 6.2 nan 5.0 6.6 6.1 7.3 7.5 7.8 5.0 nan nan nan nan nan nan nan nan nan nan nan nan nan nan nan nan nan nan nan nan nan nan nan nan nan nan nan nan nan
6.7 10.0 5.7 5.3 5.3 nan 4.4 6.4 5.4 5.6 6.6 7.4 7.1 7.3 5.6 4.9 4.6 nan nan nan nan nan nan nan nan nan nan nan nan nan nan nan nan nan nan nan nan nan nan nan nan nan nan nan
5.5 5.4 4.7 5.0 6.9 5.3 6.6 7.5 7.4 6.9 7.1 7.4 4.7 6.1 7.1 4.4 3.8 4.1 5.0 nan nan nan nan nan nan nan nan nan nan nan nan 2.5 nan nan nan nan nan nan nan nan nan 2.5 2.7 3.0
6.6 5.7 6.0 4.4 6.5 6.6 6.6 7.3 7.5 9.9 8.8 6.2 5.0 7.3 4.8 3.8 3.9 4.8 4.3 4.1 5.0 nan nan nan nan nan nan nan nan nan nan 3.5 3.5 3.5 3.9 3.3 3.5 3.7 nan nan nan 2.5 2.9 2.6
7.1 5.6 4.8 5.4 6.3 7.0 7.0 7.9 6.6 8.5 8.2 10.0 5.3 5.7 4.6 4.4 4.8 5.1 5.0 nan nan 0.0 3.6 3.3 2.7 3.3 5.0 5.0 2.5 3.0 3.8 3.9 3.9 3.9 4.2 4.1 4.0 3.9 3.8 3.5 3.5 3.3 3.4 3.2
6.2 7.5 5.8 6.1 5.5 5.2 6.5 5.4 8.4 7.2 8.9 9.7 7.4 7.2 5.7 6.6 6.9 6.3 6.7 5.0 4.1 3.5 3.2 3.4 3.5 3.5 3.2 3.7 3.8 3.4 3.6 3.7 4.0 3.7 3.8 3.9 4.4 4.3 4.5 4.5 4.7 4.4 3.9 4.3
5.2 6.9 7.2 6.6 5.7 6.4 7.0 7.4 6.9 7.1 7.7 9.0 9.3 6.9 4.9 7.5 7.8 8.7 6.2 5.2 5.2 4.9 4.5 4.7 4.4 5.0 4.2 4.0 3.2 4.2 4.2 3.9 4.2 4.5 4.3 4.4 4.7 4.9 5.0 5.3 5.2 4.9 4.9 4.6
5.4 6.8 7.4 5.8 5.3 6.8 7.3 5.6 5.8 6.5 7.8 6.8 7.7 8.6 5.7 7.9 8.0 7.2 6.6 5.7 4.9 4.9 5.1 5.3 5.4 4.8 4.0 4.1 4.0 5.1 5.4 4.5 4.4 4.1 4.4 4.7 4.8 5.0 4.9 5.5 5.8 5.3 5.3 4.7
6.1 7.5 6.9 6.5 6.5 7.0 7.3 7.0 6.9 7.7 6.0 7.3 7.1 7.1 7.0 7.8 6.8 6.4 7.0 6.1 5.6 5.1 5.0 6.0 5.9 4.8 4.3 5.2 5.5 5.4 5.5 4.9 5.2 4.3 4.6 5.2 5.0 5.2 4.7 4.9 4.8 4.5 4.6 4.7
nan 7.2 8.5 8.3 7.1 6.7 8.5 8.5 7.7 7.5 6.2 6.2 8.8 7.6 7.6 8.0 7.7 6.7 5.7 6.4 7.0 7.3 8.4 6.4 6.5 5.8 5.5 5.5 5.4 5.7 5.4 4.7 4.5 4.4 5.5 6.0 5.4 5.5 5.7 5.3 5.1 5.6 4.8 4.7
5.8 7.0 8.8 7.8 8.1 7.4 7.5 8.7 9.5 9.1 8.2 8.1 8.4 10.0 8.2 7.9 8.3 8.1 7.0 7.5 8.6 8.6 8.2 7.7 6.9 6.2 5.5 5.2 5.4 5.4 5.6 5.2 4.8 4.9 6.2 6.8 6.1 6.5 6.5 6.8 6.1 6.7 6.1 5.3
6.2 5.8 8.8 7.4 8.0 7.6 7.8 8.8 8.4 8.8 9.3 8.7 8.4 9.1 6.9 8.2 8.5 8.2 7.7 9.0 10.2 9.4 8.6 7.1 6.6 6.1 6.7 6.9 7.4 6.9 7.4 7.0 5.8 6.9 7.1 7.6 7.9 7.9 8.4 8.2 8.1 6.9 5.5 4.9
7.2 7.4 5.0 5.0 8.7 9.5 5.9 9.0 9.1 8.9 8.1 8.3 9.8 6.3 6.7 7.5 8.9 8.2 8.7 9.6 9.2 7.6 7.4 7.6 7.5 8.6 9.5 9.2 9.5 9.6 8.7 8.3 8.1 8.0 9.3 9.2 9.3 9.1 8.3 8.5 8.4 7.4 6.9 6.7
7.9 7.2 5.6 4.7 4.7 5.8 7.2 7.4 7.9 8.0 8.5 8.1 8.2 7.4 6.2 6.7 7.5 7.4 7.4 7.9 8.9 9.5 8.6 8.4 7.5 7.0 6.3 8.0 6.6 7.3 8.0 8.1 8.3 8.7 8.5 8.8 9.2 7.5 7.0 7.5 7.0 6.3 6.4 6.1
6.7 7.1 5.1 5.3 6.1 7.4 8.0 8.0 8.8 9.6 8.1 7.5 8.5 7.5 6.8 7.1 8.9 7.0 7.4 8.3 7.9 9.2 8.1 8.1 7.3 7.2 7.9 7.7 8.0 8.2 8.4 8.6 8.8 8.4 8.1 7.6 6.7 6.7 6.8 7.0 6.9 6.6 6.5 6.3
7.3 7.6 7.2 4.8 5.1 7.0 7.2 7.6 7.0 7.3 7.6 7.6 7.4 7.8 7.2 7.4 7.1 5.4 5.9 7.1 7.5 8.1 8.4 8.4 8.3 7.9 7.5 7.1 7.1 7.5 8.0 8.6 8.8 8.5 8.4 8.2 7.5 7.6 7.5 7.4 7.5 7.0 6.8 7.0
6.0 5.2 5.0 5.1 5.3 5.9 6.7 7.0 8.6 8.1 6.9 7.3 7.1 7.2 8.5 8.6 7.0 6.5 7.7 8.0 7.7 8.4 8.6 8.3 8.1 8.5 7.1 6.1 6.5 7.4 7.4 8.4 8.1 8.5 8.9 9.1 8.8 8.1 8.5 8.3 8.3 7.4 7.4 7.9
7.3 6.2 5.2 5.5 5.4 6.5 6.2 5.0 9.9 6.7 6.8 6.9 6.8 7.5 8.5 7.3 7.2 7.3 7.5 7.7 8.3 9.0 9.4 8.7 10.1 10.4 9.7 8.8 8.9 9.6 10.1 10.2 10.2 10.1 10.1 9.7 8.1 8.2 8.4 6.7 7.8 6.8 7.3 7.1
7.4 8.2 6.4 8.3 6.9 6.4 6.9 7.0 6.5 7.2 6.7 6.1 6.9 7.8 7.7 8.3 7.8 7.2 8.1 9.4 10.3 10.4 10.3 10.1 10.7 11.0 10.8 10.2 9.7 10.4 11.0 10.7 10.5 8.5 7.6 7.4 7.2 7.2 7.1 6.4 7.6 6.4 6.8 6.4
6.9 6.8 7.0 7.5 6.6 6.8 6.6 5.7 6.1 6.4 5.6 7.3 10.7 10.0 9.3 8.3 8.3 8.0 7.5 15.0 10.6 9.5 10.1 9.9 9.9 10.3 10.8 10.6 10.1 10.1 10.3 9.9 6.8 6.8 7.9 8.2 7.6 6.8 6.8 5.6 5.5 5.4 5.9 6.4
4.5 3.6 4.8 7.0 5.0 5.8 5.4 4.6 5.2 6.0 6.1 6.9 7.7 7.9 9.6 8.6 6.3 9.2 4.2 4.2 4.0 5.5 8.9 9.4 9.4 9.8 10.4 10.1 10.1 8.7 9.0 8.1 7.2 6.8 8.4 7.4 6.5 6.1 7.1 6.7 5.9 6.3 6.4 6.0
6.1 6.8 4.3 4.4 5.3 5.2 4.3 15.0 nan 12.5 8.1 8.8 7.5 4.5 3.3 6.9 5.7 5.0 5.0 4.4 5.2 6.4 7.9 8.5 8.4 9.1 9.9 9.6 9.5 8.8 7.5 7.1 7.8 9.4 7.9 7.2 6.8 7.2 7.4 7.7 8.4 nan nan nan